Location: Blythe
(33.2930°N, 82.2020°W)
Time: 11:26:17
(UTC-04:00)

Hubble Space Telescope - Visible Passes

Search period start: 27 July 2016 00:00
Search period end: 06 August 2016 00:00
Orbit: 539 x 543 km, 28.5° (Epoch: 27 July)

Date Brightness Start Highest point End Pass type
(mag) Time Alt. Az. Time Alt. Az. Time Alt. Az.
01 Aug 2.1 06:04:17 10° SW 06:07:49 27° SSE 06:11:21 10° ESE visible
02 Aug 1.9 05:54:52 13° SW 05:58:01 31° SSE 06:01:43 10° ESE visible
03 Aug 1.7 05:45:37 17° SW 05:48:15 35° S 05:52:02 10° ESE visible
04 Aug 1.5 05:36:22 22° SW 05:38:29 38° S 05:42:20 10° ESE visible
05 Aug 1.4 05:27:09 28° SW 05:28:43 40° S 05:32:37 10° ESE visible
